START_TIME,STEP,MOV.,M15,t_acc.,M20,t_acc.
1980-11-16 00:00:32.500 ,3,0,0.,24.0,0.,24.0
1980-11-16 00:00:56.500 ,4,1,0.,24.0,0.,24.0
1980-11-16 00:01:20.500 ,4,0,0.,24.0,0.,24.0
1980-11-16 00:01:44.500 ,5,1,0.,24.0,0.,24.0
1980-11-16 00:02:08.500 ,5,0,0.,24.0,0.,24.0
1980-11-16 00:02:32.500 ,6,1,0.,24.0,0.,24.0
1980-11-16 00:02:56.500 ,6,0,0.,24.0,0.,24.0
1980-11-16 00:03:20.500 ,7,1,0.,24.0,0.,24.0
1980-11-16 00:03:44.500 ,7,0,0.,24.0,0.,24.0
1980-11-16 00:04:08.500 ,7,1,0.,24.0,0.,24.0
1980-11-16 00:04:32.500 ,7,0,0.,24.0,0.,24.0
1980-11-16 00:04:56.500 ,6,1,0.,24.0,0.,24.0
1980-11-16 00:05:20.500 ,6,0,0.,24.0,0.,24.0
1980-11-16 00:05:44.500 ,5,1,0.,24.0,0.,24.0
1980-11-16 00:06:08.500 ,5,0,0.,24.0,0.,24.0
1980-11-16 00:06:32.500 ,0,0,0.,24.0,0.,24.0
1980-11-16 00:07:20.500 ,3,1,0.,24.0,0.,24.0
1980-11-16 00:07:44.500 ,3,0,0.,24.0,0.,24.0
1980-11-16 00:08:08.500 ,2,1,0.,24.0,0.,24.0
1980-11-16 00:08:32.500 ,2,0,0.,24.0,0.,24.0
1980-11-16 00:08:56.500 ,1,1,0.,24.0,0.,24.0
1980-11-16 00:09:20.500 ,1,0,0.,24.0,0.,24.0
1980-11-16 00:09:44.500 ,0,1,0.,24.0,0.,24.0
1980-11-16 00:10:08.500 ,0,0,0.,24.0,0.,24.0
1980-11-16 00:10:32.500 ,0,1,0.,24.0,0.,24.0
1980-11-16 00:10:56.500 ,0,0,0.,24.0,0.,24.0
1980-11-16 00:11:20.500 ,1,1,0.,24.0,0.,24.0
1980-11-16 00:11:44.500 ,1,0,0.,24.0,0.,24.0
1980-11-16 00:12:08.500 ,2,1,0.,24.0,0.,24.0
1980-11-16 00:12:32.500 ,2,0,0.,24.0,0.,24.0
1980-11-16 00:12:56.500 ,3,1,0.,24.0,0.,24.0
1980-11-16 00:13:20.500 ,3,0,0.,24.0,0.,24.0
1980-11-16 00:13:44.500 ,4,1,0.,24.0,0.,24.0
1980-11-16 00:14:08.500 ,4,0,0.,24.0,0.,24.0
1980-11-16 00:14:32.500 ,5,1,0.,24.0,0.,24.0
1980-11-16 00:14:56.500 ,5,0,0.,24.0,0.,24.0
1980-11-16 00:15:20.500 ,6,1,0.,24.0,0.,24.0
1980-11-16 00:15:44.500 ,6,0,0.,24.0,0.,24.0
1980-11-16 00:16:08.500 ,7,1,0.,24.0,0.,24.0
1980-11-16 00:16:32.500 ,7,0,0.,24.0,0.,24.0
1980-11-16 00:16:56.500 ,7,1,0.,24.0,0.,24.0
1980-11-16 00:17:20.500 ,7,0,0.,24.0,0.,24.0
1980-11-16 00:17:44.500 ,6,1,0.,24.0,0.,24.0
1980-11-16 00:18:08.500 ,6,0,0.,24.0,0.,24.0
1980-11-16 00:18:32.500 ,5,1,0.,24.0,0.,24.0
1980-11-16 00:18:56.500 ,5,0,0.,24.0,0.,24.0
1980-11-16 00:19:20.500 ,4,1,0.,24.0,0.,24.0
1980-11-16 00:19:44.500 ,4,0,0.,24.0,0.,24.0
1980-11-16 00:20:08.500 ,3,1,0.,24.0,0.,24.0
1980-11-16 00:20:32.500 ,3,0,0.,24.0,0.,24.0
1980-11-16 00:20:56.500 ,2,1,0.,24.0,0.,24.0
1980-11-16 00:21:20.500 ,2,0,0.,24.0,0.,24.0
1980-11-16 00:21:44.500 ,1,1,0.,24.0,0.,24.0
1980-11-16 00:22:08.500 ,1,0,0.,24.0,0.,24.0
1980-11-16 00:22:32.500 ,0,1,0.,24.0,0.,24.0
1980-11-16 00:22:56.500 ,0,0,0.,24.0,0.,24.0
1980-11-16 00:23:20.500 ,0,1,0.,24.0,0.,24.0
1980-11-16 00:23:44.500 ,0,0,0.,24.0,0.,24.0
1980-11-16 00:24:08.500 ,1,1,0.,24.0,0.,24.0
1980-11-16 00:24:32.500 ,1,0,0.,24.0,0.,24.0
1980-11-16 00:24:56.500 ,2,1,0.,24.0,0.,24.0
1980-11-16 00:25:20.500 ,2,0,0.,24.0,0.,24.0
1980-11-16 00:25:44.500 ,3,1,0.,24.0,0.,24.0
1980-11-16 00:26:08.500 ,3,0,0.,24.0,0.,24.0
1980-11-16 00:26:32.500 ,4,1,0.,24.0,0.,24.0
1980-11-16 00:26:56.500 ,4,0,0.,24.0,0.,24.0
1980-11-16 00:27:20.500 ,5,1,0.,24.0,0.,24.0
1980-11-16 00:27:44.500 ,5,0,0.,24.0,0.,24.0
1980-11-16 00:28:08.500 ,6,1,0.,24.0,0.,24.0
1980-11-16 00:28:32.500 ,6,0,0.,24.0,0.,24.0
1980-11-16 00:28:56.500 ,7,1,0.,24.0,0.,24.0
1980-11-16 00:29:20.500 ,7,0,0.,24.0,0.,24.0
1980-11-16 00:29:44.500 ,7,1,0.,24.0,0.,24.0
1980-11-16 00:30:08.500 ,7,0,0.,24.0,0.,24.0
1980-11-16 00:30:32.500 ,6,1,0.,24.0,0.,24.0
1980-11-16 00:30:56.500 ,6,0,0.,24.0,0.,24.0
1980-11-16 00:31:20.500 ,5,1,0.,24.0,0.,24.0
1980-11-16 00:31:44.500 ,5,0,0.,24.0,0.,24.0
1980-11-16 00:32:08.500 ,4,1,0.,24.0,0.,24.0
1980-11-16 00:32:32.500 ,4,0,0.,24.0,0.,24.0
1980-11-16 00:32:56.500 ,3,1,0.,24.0,0.,24.0
1980-11-16 00:33:20.500 ,3,0,0.,24.0,0.,24.0
1980-11-16 00:33:44.500 ,2,1,0.,24.0,0.,24.0
1980-11-16 00:34:08.500 ,2,0,0.,24.0,0.,24.0
1980-11-16 00:34:32.500 ,1,1,0.,24.0,0.,24.0
1980-11-16 00:34:56.500 ,1,0,0.,24.0,0.,24.0
1980-11-16 00:35:20.500 ,0,1,0.,24.0,0.,24.0
1980-11-16 00:35:44.500 ,0,0,0.,24.0,0.,24.0
1980-11-16 00:36:08.500 ,0,1,0.,24.0,0.,24.0
1980-11-16 00:36:32.500 ,0,0,0.,24.0,0.,24.0
1980-11-16 00:36:56.500 ,1,1,0.,24.0,0.,24.0
1980-11-16 00:37:20.500 ,1,0,0.,24.0,0.,24.0
1980-11-16 00:37:44.500 ,2,1,0.,24.0,0.,24.0
1980-11-16 00:38:08.500 ,2,0,0.,24.0,0.,24.0
1980-11-16 00:38:32.500 ,3,1,0.,24.0,0.,24.0
1980-11-16 00:38:56.500 ,0,0,,0,,0
1980-11-16 00:39:20.500 ,4,1,0.,24.0,0.,24.0
1980-11-16 00:39:44.500 ,4,0,0.,24.0,0.,24.0
1980-11-16 00:40:08.500 ,5,1,0.,24.0,0.,24.0
1980-11-16 00:40:32.500 ,5,0,0.,24.0,0.,24.0
1980-11-16 00:40:56.500 ,6,1,0.,24.0,0.,24.0
1980-11-16 00:41:20.500 ,6,0,0.,24.0,0.,24.0
1980-11-16 00:41:44.500 ,7,1,0.,24.0,0.,24.0
1980-11-16 00:42:08.500 ,7,0,0.,24.0,0.,24.0
1980-11-16 00:42:32.500 ,7,1,0.,24.0,0.,24.0
1980-11-16 00:42:56.500 ,7,0,0.,24.0,0.,24.0
1980-11-16 00:43:20.500 ,6,1,0.,24.0,0.,24.0
1980-11-16 00:43:44.500 ,6,0,0.,24.0,0.,24.0
1980-11-16 00:44:08.500 ,5,1,0.,24.0,0.,24.0
1980-11-16 00:44:32.500 ,5,0,0.,24.0,0.,24.0
1980-11-16 00:44:56.500 ,4,1,0.,24.0,0.,24.0
1980-11-16 00:45:20.500 ,4,0,0.,24.0,0.,24.0
1980-11-16 00:45:44.500 ,3,1,0.,24.0,0.,24.0
1980-11-16 00:46:08.500 ,0,0,0.,24.0,0.,24.0
1980-11-16 00:46:48.700 ,0,0,0.,24.0,0.,24.0
1980-11-16 00:46:56.500 ,0,0,0.,24.0,0.,24.0
1980-11-16 00:47:20.500 ,1,1,0.,24.0,0.,24.0
1980-11-16 00:47:44.500 ,1,0,0.,24.0,0.,24.0
1980-11-16 00:48:08.500 ,0,1,0.,24.0,0.,24.0
1980-11-16 00:48:32.500 ,0,0,0.,24.0,0.,24.0
1980-11-16 00:48:56.500 ,0,1,0.,24.0,0.,24.0
1980-11-16 00:49:20.500 ,0,0,0.,24.0,0.,24.0
1980-11-16 00:49:44.500 ,1,1,0.,24.0,0.,24.0
1980-11-16 00:50:08.500 ,1,0,0.,24.0,0.,24.0
1980-11-16 00:50:32.500 ,2,1,0.,24.0,0.,24.0
1980-11-16 00:50:56.500 ,2,0,0.,24.0,0.,24.0
1980-11-16 00:51:20.500 ,3,1,0.,24.0,0.,24.0
1980-11-16 00:51:44.500 ,3,0,0.,24.0,0.,24.0
1980-11-16 00:52:08.500 ,4,1,0.,24.0,0.,24.0
1980-11-16 00:52:32.500 ,4,0,0.,24.0,0.,24.0
1980-11-16 00:52:56.500 ,5,1,0.,24.0,0.,24.0
1980-11-16 00:53:20.500 ,5,0,0.,24.0,0.,24.0
1980-11-16 00:53:44.500 ,6,1,0.,24.0,0.,24.0
1980-11-16 00:54:08.500 ,6,0,0.,24.0,0.,24.0
1980-11-16 00:54:32.500 ,7,1,0.,24.0,0.,24.0
1980-11-16 00:54:56.500 ,7,0,0.,24.0,0.,24.0
1980-11-16 00:55:20.500 ,7,1,0.,24.0,0.,24.0
1980-11-16 00:55:44.500 ,7,0,0.,24.0,0.,24.0
1980-11-16 00:56:08.500 ,6,1,0.,24.0,0.,24.0
1980-11-16 00:56:32.500 ,0,0,0.,24.0,0.,24.0
1980-11-16 00:59:26.500 ,0,0,0.,24.0,0.,24.0
1980-11-16 00:59:44.500 ,0,0,0.,24.0,0.,24.0
1980-11-16 01:00:08.500 ,1,1,0.,24.0,0.,24.0
1980-11-16 01:00:32.500 ,1,0,0.,24.0,0.,24.0
1980-11-16 01:00:56.500 ,0,1,0.,24.0,0.,24.0
1980-11-16 01:01:20.500 ,0,0,0.,24.0,0.,24.0
1980-11-16 01:01:44.500 ,0,1,0.,24.0,0.,24.0
1980-11-16 01:02:08.500 ,0,0,0.,24.0,0.,24.0
1980-11-16 01:02:32.500 ,1,1,0.,24.0,0.,24.0
1980-11-16 01:02:56.500 ,1,0,0.,24.0,0.,24.0
1980-11-16 01:03:20.500 ,2,1,0.,24.0,0.,24.0
1980-11-16 01:03:44.500 ,2,0,0.,24.0,0.,24.0
1980-11-16 01:04:08.500 ,3,1,0.,24.0,0.,24.0
1980-11-16 01:04:32.500 ,3,0,0.,24.0,0.,24.0
1980-11-16 01:04:56.500 ,4,1,0.,24.0,0.,24.0
1980-11-16 01:05:20.500 ,4,0,0.,24.0,0.,24.0
1980-11-16 01:05:44.500 ,5,1,0.,24.0,0.,24.0
1980-11-16 01:06:08.500 ,5,0,0.,24.0,0.,24.0
1980-11-16 01:06:32.500 ,6,1,0.,24.0,0.,24.0
1980-11-16 01:06:56.500 ,6,0,0.,24.0,0.,24.0
1980-11-16 01:07:20.500 ,7,1,0.,24.0,0.,24.0
1980-11-16 01:07:44.500 ,7,0,0.,24.0,0.,24.0
1980-11-16 01:08:08.500 ,7,1,0.,24.0,0.,24.0
1980-11-16 01:08:32.500 ,7,0,0.,24.0,0.,24.0
1980-11-16 01:08:56.500 ,6,1,0.,24.0,0.,24.0
1980-11-16 01:09:20.500 ,6,0,0.,24.0,0.,24.0
1980-11-16 01:09:44.500 ,5,1,0.,24.0,0.,24.0
1980-11-16 01:10:08.500 ,5,0,0.,24.0,0.,24.0
1980-11-16 01:10:32.500 ,4,1,0.,24.0,0.,24.0
1980-11-16 01:10:56.500 ,4,0,0.,24.0,0.,24.0
1980-11-16 01:11:20.500 ,3,1,0.,24.0,0.,24.0
1980-11-16 01:11:44.500 ,3,0,0.,24.0,0.,24.0
1980-11-16 01:12:08.500 ,2,1,0.,24.0,0.,24.0
1980-11-16 01:12:32.500 ,2,0,0.,24.0,0.,24.0
1980-11-16 01:12:56.500 ,1,1,0.,24.0,0.,24.0
1980-11-16 01:13:20.500 ,1,0,0.,24.0,0.,24.0
1980-11-16 01:13:44.500 ,0,1,0.,24.0,0.,24.0
1980-11-16 01:14:08.500 ,0,0,0.,24.0,0.,24.0
1980-11-16 01:14:32.500 ,0,1,0.,24.0,0.,24.0
1980-11-16 01:14:56.500 ,0,0,0.,24.0,0.,24.0
1980-11-16 01:15:20.500 ,1,1,0.,24.0,0.,24.0
1980-11-16 01:15:44.500 ,1,0,0.,24.0,0.,24.0
1980-11-16 01:16:08.500 ,2,1,0.,24.0,0.,24.0
1980-11-16 01:16:32.500 ,2,0,0.,24.0,0.,24.0
1980-11-16 01:16:56.500 ,3,1,0.,24.0,0.,24.0
1980-11-16 01:17:20.500 ,3,0,0.,24.0,0.,24.0
1980-11-16 01:17:44.500 ,4,1,0.,24.0,0.,24.0
1980-11-16 01:18:08.500 ,4,0,0.,24.0,0.,24.0
1980-11-16 01:18:32.500 ,5,1,0.,24.0,0.,24.0
1980-11-16 01:18:56.500 ,5,0,0.,24.0,0.,24.0
1980-11-16 01:19:20.500 ,6,1,0.,24.0,0.,24.0
1980-11-16 01:19:44.500 ,6,0,0.,24.0,0.,24.0
1980-11-16 01:20:08.500 ,7,1,0.,24.0,0.,24.0
1980-11-16 01:20:32.500 ,0,0,0.,24.0,0.,24.0
1980-11-16 01:21:31.900 ,0,0,0.,24.0,0.,24.0
1980-11-16 01:21:44.500 ,6,1,0.,24.0,0.,24.0
1980-11-16 01:22:08.500 ,6,0,0.,24.0,0.,24.0
1980-11-16 01:22:32.500 ,5,1,0.,24.0,0.,24.0
1980-11-16 01:22:56.500 ,5,0,0.,24.0,0.,24.0
1980-11-16 01:23:20.500 ,4,1,0.,24.0,0.,24.0
1980-11-16 01:23:44.500 ,4,0,0.,24.0,0.,24.0
1980-11-16 01:24:08.500 ,3,1,0.,24.0,0.,24.0
1980-11-16 01:24:32.500 ,3,0,0.,24.0,0.,24.0
1980-11-16 01:24:56.500 ,2,1,0.,24.0,0.,24.0
1980-11-16 01:25:20.500 ,2,0,0.,24.0,0.,24.0
1980-11-16 01:25:44.500 ,1,1,0.,24.0,0.,24.0
1980-11-16 01:26:08.500 ,1,0,0.,24.0,0.,24.0
1980-11-16 01:26:32.500 ,0,1,0.,24.0,0.,24.0
1980-11-16 01:26:56.500 ,0,0,0.,24.0,0.,24.0
1980-11-16 01:27:20.500 ,0,1,0.,24.0,0.,24.0
1980-11-16 01:27:44.500 ,0,0,0.,24.0,0.,24.0
1980-11-16 01:28:08.500 ,1,1,0.,24.0,0.,24.0
1980-11-16 01:28:32.500 ,1,0,0.,24.0,0.,24.0
1980-11-16 01:28:56.500 ,2,1,0.,24.0,0.,24.0
1980-11-16 01:29:20.500 ,2,0,0.,24.0,0.,24.0
1980-11-16 01:29:44.500 ,3,1,0.,24.0,0.,24.0
1980-11-16 01:30:08.500 ,3,0,0.,24.0,0.,24.0
1980-11-16 01:30:32.500 ,4,1,0.,24.0,0.,24.0
1980-11-16 01:30:56.500 ,4,0,0.,24.0,0.,24.0
1980-11-16 01:31:20.500 ,5,1,0.,24.0,0.,24.0
1980-11-16 01:31:44.500 ,5,0,0.,24.0,0.,24.0
1980-11-16 01:32:08.500 ,6,1,0.,24.0,0.,24.0
1980-11-16 01:32:32.500 ,6,0,0.,24.0,0.,24.0
1980-11-16 01:32:56.500 ,7,1,0.,24.0,0.,24.0
1980-11-16 01:33:20.500 ,7,0,0.,24.0,0.,24.0
1980-11-16 01:33:44.500 ,7,1,0.,24.0,0.,24.0
1980-11-16 01:34:08.500 ,7,0,0.,24.0,0.,24.0
1980-11-16 01:34:32.500 ,6,1,0.,24.0,0.,24.0
1980-11-16 01:34:56.500 ,6,0,0.,24.0,0.,24.0
1980-11-16 01:35:20.500 ,5,1,0.,24.0,0.,24.0
1980-11-16 01:35:44.500 ,5,0,0.,24.0,0.,24.0
1980-11-16 01:36:08.500 ,4,1,0.,24.0,0.,24.0
1980-11-16 01:36:32.500 ,4,0,0.,24.0,0.,24.0
1980-11-16 01:36:56.500 ,3,1,0.,24.0,0.,24.0
1980-11-16 01:37:20.500 ,3,0,0.,24.0,0.,24.0
1980-11-16 01:37:44.500 ,2,1,0.,24.0,0.,24.0
1980-11-16 01:38:08.500 ,2,0,0.,24.0,0.,24.0
1980-11-16 01:38:32.500 ,1,1,0.,24.0,0.,24.0
1980-11-16 01:38:56.500 ,1,0,0.,24.0,0.,24.0
1980-11-16 01:39:20.500 ,0,1,0.,24.0,0.,24.0
1980-11-16 01:39:44.500 ,0,0,0.,24.0,0.,24.0
1980-11-16 01:40:08.500 ,0,1,0.,24.0,0.,24.0
1980-11-16 01:40:32.500 ,0,0,0.,24.0,0.,24.0
1980-11-16 01:40:56.500 ,1,1,0.,24.0,0.,24.0
1980-11-16 01:41:20.500 ,1,0,0.,24.0,0.,24.0
1980-11-16 01:41:44.500 ,2,1,0.,24.0,0.,24.0
1980-11-16 01:42:08.500 ,2,0,0.,24.0,0.,24.0
1980-11-16 01:42:32.500 ,3,1,0.,24.0,0.,24.0
1980-11-16 01:42:56.500 ,3,0,0.,24.0,0.,24.0
1980-11-16 01:43:20.500 ,4,1,0.,24.0,0.,24.0
1980-11-16 01:43:44.500 ,4,0,0.,24.0,0.,24.0
1980-11-16 01:44:08.500 ,5,1,0.,24.0,0.,24.0
1980-11-16 01:44:32.500 ,5,0,0.,24.0,0.,24.0
1980-11-16 01:44:56.500 ,6,1,0.,24.0,0.,24.0
1980-11-16 01:45:20.500 ,6,0,0.,24.0,0.,24.0
1980-11-16 01:45:44.500 ,7,1,0.,24.0,0.,24.0
1980-11-16 01:46:08.500 ,7,0,0.,24.0,0.,24.0
1980-11-16 01:46:32.500 ,7,1,0.,24.0,0.,24.0
1980-11-16 01:46:56.500 ,7,0,0.,24.0,0.,24.0
1980-11-16 01:47:20.500 ,6,1,0.,24.0,0.,24.0
1980-11-16 01:47:44.500 ,6,0,0.,24.0,0.,24.0
1980-11-16 01:48:08.500 ,5,1,0.,24.0,0.,24.0
1980-11-16 01:48:32.500 ,5,0,0.,24.0,0.,24.0
1980-11-16 01:48:56.500 ,4,1,0.,24.0,0.,24.0
1980-11-16 01:49:20.500 ,4,0,0.,24.0,0.,24.0
1980-11-16 01:49:44.500 ,3,1,0.,24.0,0.,24.0
1980-11-16 01:50:08.500 ,3,0,0.,24.0,0.,24.0
1980-11-16 01:50:32.500 ,2,1,0.,24.0,0.,24.0
1980-11-16 01:50:56.500 ,2,0,0.,24.0,0.,24.0
1980-11-16 01:51:20.500 ,1,1,0.,24.0,0.,24.0
1980-11-16 01:51:44.500 ,1,0,0.,24.0,0.,24.0
1980-11-16 01:52:08.500 ,0,1,0.,24.0,0.,24.0
1980-11-16 01:52:32.500 ,0,0,0.,24.0,0.,24.0
1980-11-16 01:52:56.500 ,0,1,0.,24.0,0.,24.0
1980-11-16 01:53:20.500 ,0,0,0.,24.0,0.,24.0
1980-11-16 01:53:44.500 ,1,1,0.,24.0,0.,24.0
1980-11-16 01:54:08.500 ,1,0,0.,24.0,0.,24.0
1980-11-16 01:54:32.500 ,2,1,0.,24.0,0.,24.0
1980-11-16 01:54:56.500 ,2,0,0.,24.0,0.,24.0
1980-11-16 01:55:20.500 ,3,1,0.,24.0,0.,24.0
1980-11-16 01:55:44.500 ,3,0,0.,24.0,0.,24.0
1980-11-16 01:56:08.500 ,4,1,0.,24.0,0.,24.0
1980-11-16 01:56:32.500 ,4,0,0.,24.0,0.,24.0
1980-11-16 01:56:56.500 ,5,1,0.,24.0,0.,24.0
1980-11-16 01:57:20.500 ,5,0,0.,24.0,0.,24.0
1980-11-16 01:57:44.500 ,6,1,0.,24.0,0.,24.0
1980-11-16 01:58:08.500 ,6,0,0.,24.0,0.,24.0
1980-11-16 01:58:32.500 ,7,1,0.,24.0,0.,24.0
1980-11-16 01:58:56.500 ,7,0,0.,24.0,0.,24.0
1980-11-16 01:59:20.500 ,7,1,0.,24.0,0.,24.0
1980-11-16 01:59:44.500 ,7,0,0.,24.0,0.,24.0
1980-11-16 02:00:08.500 ,6,1,0.,24.0,0.,24.0
1980-11-16 02:00:32.500 ,6,0,0.,24.0,0.,24.0
1980-11-16 02:00:56.500 ,5,1,0.,24.0,0.,24.0
1980-11-16 02:01:20.500 ,5,0,0.,24.0,0.,24.0
1980-11-16 02:01:44.500 ,4,1,0.,24.0,0.,24.0
1980-11-16 02:02:08.500 ,4,0,0.,24.0,0.,24.0
1980-11-16 02:02:32.500 ,3,1,0.,24.0,0.,24.0
1980-11-16 02:02:56.500 ,3,0,0.,24.0,0.,24.0
1980-11-16 02:03:20.500 ,2,1,0.,24.0,0.,24.0
1980-11-16 02:03:44.500 ,2,0,0.,24.0,0.,24.0
1980-11-16 02:04:08.500 ,1,1,0.,24.0,0.,24.0
1980-11-16 02:04:32.500 ,1,0,0.,24.0,0.,24.0
1980-11-16 02:04:56.500 ,0,1,0.,24.0,0.,24.0
1980-11-16 02:05:20.500 ,0,0,0.,24.0,0.,24.0
1980-11-16 02:05:44.500 ,0,1,0.,24.0,0.,24.0
1980-11-16 02:06:08.500 ,0,0,0.,24.0,0.,24.0
1980-11-16 02:06:32.500 ,1,1,0.,24.0,0.,24.0
1980-11-16 02:06:56.500 ,1,0,0.,24.0,0.,24.0
1980-11-16 02:07:20.500 ,2,1,0.,24.0,0.,24.0
1980-11-16 02:07:44.500 ,2,0,0.,24.0,0.,24.0
1980-11-16 02:08:08.500 ,3,1,0.,24.0,0.,24.0
1980-11-16 02:08:32.500 ,3,0,0.,24.0,0.,24.0
1980-11-16 02:08:56.500 ,4,1,0.,24.0,0.,24.0
1980-11-16 02:09:20.500 ,4,0,0.,24.0,0.,24.0
1980-11-16 02:09:44.500 ,5,1,0.,24.0,0.,24.0
1980-11-16 02:10:08.500 ,5,0,0.,24.0,0.,24.0
1980-11-16 02:10:32.500 ,6,1,0.,24.0,0.,24.0
1980-11-16 02:10:56.500 ,6,0,0.,24.0,0.,24.0
1980-11-16 02:11:20.500 ,7,1,0.,24.0,0.,24.0
1980-11-16 02:11:44.500 ,7,0,0.,24.0,0.,24.0
1980-11-16 02:12:08.500 ,7,1,0.,24.0,0.,24.0
1980-11-16 02:12:32.500 ,7,0,0.,24.0,0.,24.0
1980-11-16 02:12:56.500 ,6,1,0.,24.0,0.,24.0
1980-11-16 02:13:20.500 ,6,0,0.,24.0,0.,24.0
1980-11-16 02:13:44.500 ,5,1,0.,24.0,0.,24.0
1980-11-16 02:14:08.500 ,5,0,0.,24.0,0.,24.0
1980-11-16 02:14:32.500 ,4,1,0.,24.0,0.,24.0
1980-11-16 02:14:56.500 ,4,0,0.,24.0,0.,24.0
1980-11-16 02:15:20.500 ,3,1,0.,24.0,0.,24.0
1980-11-16 02:15:44.500 ,3,0,0.,24.0,0.,24.0
1980-11-16 02:16:08.500 ,2,1,0.,24.0,0.,24.0
1980-11-16 02:16:32.500 ,2,0,0.,24.0,0.,24.0
1980-11-16 02:16:56.500 ,1,1,0.,24.0,0.,24.0
1980-11-16 02:17:20.500 ,1,0,0.,24.0,0.,24.0
1980-11-16 02:17:44.500 ,0,1,0.,24.0,0.,24.0
1980-11-16 02:18:08.500 ,0,0,0.,24.0,0.,24.0
1980-11-16 02:18:32.500 ,0,1,0.,24.0,0.,24.0
1980-11-16 02:18:56.500 ,0,0,0.,24.0,0.,24.0
1980-11-16 02:19:20.500 ,1,1,0.,24.0,0.,24.0
1980-11-16 02:19:44.500 ,1,0,0.,24.0,0.,24.0
1980-11-16 02:20:08.500 ,2,1,0.,24.0,0.,24.0
1980-11-16 02:20:32.500 ,2,0,0.,24.0,0.,24.0
1980-11-16 02:20:56.500 ,3,1,0.,24.0,0.,24.0
1980-11-16 02:21:20.500 ,3,0,0.,24.0,0.,24.0
1980-11-16 02:21:44.500 ,4,1,0.,24.0,0.,24.0
1980-11-16 02:22:08.500 ,4,0,0.,24.0,0.,24.0
1980-11-16 02:22:32.500 ,5,1,0.,24.0,0.,24.0
1980-11-16 02:22:56.500 ,5,0,0.,24.0,0.,24.0
1980-11-16 02:23:20.500 ,6,1,0.,24.0,0.,24.0
1980-11-16 02:23:44.500 ,6,0,0.,24.0,0.,24.0
1980-11-16 02:24:08.500 ,7,1,0.,24.0,0.,24.0
1980-11-16 02:24:32.500 ,7,0,0.,24.0,0.,24.0
1980-11-16 02:24:56.500 ,7,1,0.,24.0,0.,24.0
1980-11-16 02:25:20.500 ,7,0,0.,24.0,0.,24.0
1980-11-16 02:25:44.500 ,6,1,0.,24.0,0.,24.0
1980-11-16 02:26:08.500 ,6,0,0.,24.0,0.,24.0
1980-11-16 02:26:32.500 ,5,1,0.,24.0,0.,24.0
1980-11-16 02:26:56.500 ,5,0,0.,24.0,0.,24.0
1980-11-16 02:27:20.500 ,4,1,0.,24.0,0.,24.0
1980-11-16 02:27:44.500 ,4,0,0.,24.0,0.,24.0
1980-11-16 02:28:08.500 ,3,1,0.,24.0,0.,24.0
1980-11-16 02:28:32.500 ,3,0,0.,24.0,0.,24.0
1980-11-16 02:28:56.500 ,2,1,0.,24.0,0.,24.0
1980-11-16 02:29:20.500 ,2,0,0.,24.0,0.,24.0
1980-11-16 02:29:44.500 ,1,1,0.,24.0,0.,24.0
1980-11-16 02:30:08.500 ,1,0,0.,24.0,0.,24.0
1980-11-16 02:30:32.500 ,0,1,0.,24.0,0.,24.0
1980-11-16 02:30:56.500 ,0,0,0.,24.0,0.,24.0
1980-11-16 02:31:20.500 ,0,1,0.,24.0,0.,24.0
1980-11-16 02:31:44.500 ,0,0,0.,24.0,0.,24.0
1980-11-16 02:32:08.500 ,1,1,0.,24.0,0.,24.0
1980-11-16 02:32:32.500 ,1,0,0.,24.0,0.,24.0
1980-11-16 02:32:56.500 ,0,0,,0,,0
1980-11-16 02:33:20.500 ,0,0,0.,24.0,0.,24.0
1980-11-16 02:33:44.500 ,0,0,,0,,0
1980-11-16 02:34:08.500 ,0,0,,0,,0
1980-11-16 02:34:32.500 ,0,0,,0,,0
1980-11-16 02:34:56.500 ,0,0,,0,,0
1980-11-16 02:35:00.100 ,0,0,0.,24.0,0.,24.0
1980-11-16 02:35:20.500 ,5,1,0.,24.0,0.,24.0
1980-11-16 02:35:44.500 ,5,0,0.,24.0,0.,24.0
1980-11-16 02:36:08.500 ,6,1,0.,24.0,0.,24.0
1980-11-16 02:36:32.500 ,6,0,0.,24.0,0.,24.0
1980-11-16 02:36:56.500 ,7,1,0.,24.0,0.,24.0
1980-11-16 02:37:20.500 ,7,0,0.,24.0,0.,24.0
1980-11-16 02:37:44.500 ,7,1,0.,24.0,0.,24.0
1980-11-16 02:38:08.500 ,7,0,0.,24.0,0.,24.0
1980-11-16 02:38:32.500 ,6,1,0.,24.0,0.,24.0
1980-11-16 02:38:56.500 ,6,0,0.,24.0,0.,24.0
1980-11-16 02:39:20.500 ,5,1,0.,24.0,0.,24.0
1980-11-16 02:39:44.500 ,5,0,0.,24.0,0.,24.0
1980-11-16 02:40:08.500 ,4,1,0.,24.0,0.,24.0
1980-11-16 02:40:32.500 ,4,0,0.,24.0,0.,24.0
1980-11-16 02:40:56.500 ,3,1,0.,24.0,0.,24.0
1980-11-16 02:41:20.500 ,3,0,0.,24.0,0.,24.0
1980-11-16 02:41:44.500 ,2,1,0.,24.0,0.,24.0
1980-11-16 02:42:08.500 ,2,0,0.,24.0,0.,24.0
1980-11-16 02:42:32.500 ,1,1,0.,24.0,0.,24.0
1980-11-16 02:42:56.500 ,1,0,0.,24.0,0.,24.0
1980-11-16 02:43:20.500 ,0,1,0.,24.0,0.,24.0
1980-11-16 02:43:44.500 ,0,0,0.,24.0,0.,24.0
1980-11-16 02:44:08.500 ,0,1,0.,24.0,0.,24.0
1980-11-16 02:44:32.500 ,0,0,0.,24.0,0.,24.0
1980-11-16 02:44:56.500 ,1,1,0.,24.0,0.,24.0
1980-11-16 02:45:20.500 ,1,0,0.,24.0,0.,24.0
1980-11-16 02:45:44.500 ,2,1,0.,24.0,0.,24.0
1980-11-16 02:46:08.500 ,2,0,0.,24.0,0.,24.0
1980-11-16 02:46:32.500 ,3,1,0.,24.0,0.,24.0
1980-11-16 02:46:56.500 ,3,0,0.,24.0,0.,24.0
1980-11-16 02:47:20.500 ,4,1,0.,24.0,0.,24.0
1980-11-16 02:47:44.500 ,4,0,0.,24.0,0.,24.0
1980-11-16 02:48:08.500 ,5,1,0.,24.0,0.,24.0
1980-11-16 02:48:32.500 ,5,0,1.,24.0,0.,24.0
1980-11-16 02:48:56.500 ,6,1,0.,24.0,0.,24.0
1980-11-16 02:49:20.500 ,6,0,0.,24.0,0.,24.0
1980-11-16 02:49:44.500 ,7,1,0.,24.0,0.,24.0
1980-11-16 02:50:08.500 ,7,0,0.,24.0,0.,24.0
1980-11-16 02:50:32.500 ,7,1,0.,24.0,0.,24.0
1980-11-16 02:50:56.500 ,7,0,0.,24.0,0.,24.0
1980-11-16 02:51:20.500 ,6,1,0.,24.0,0.,24.0
1980-11-16 02:51:44.500 ,6,0,0.,24.0,0.,24.0
1980-11-16 02:52:08.500 ,5,1,0.,24.0,0.,24.0
1980-11-16 02:52:32.500 ,5,0,0.,24.0,0.,24.0
1980-11-16 02:52:56.500 ,4,1,0.,24.0,0.,24.0
1980-11-16 02:53:20.500 ,4,0,0.,24.0,0.,24.0
1980-11-16 02:53:44.500 ,3,1,0.,24.0,0.,24.0
1980-11-16 02:54:08.500 ,3,0,0.,24.0,0.,24.0
1980-11-16 02:54:32.500 ,2,1,0.,24.0,0.,24.0
1980-11-16 02:54:56.500 ,2,0,0.,24.0,0.,24.0
1980-11-16 02:55:20.500 ,1,1,0.,24.0,0.,24.0
1980-11-16 02:55:44.500 ,1,0,0.,24.0,0.,24.0
1980-11-16 02:56:08.500 ,0,1,0.,24.0,0.,24.0
1980-11-16 02:56:32.500 ,0,0,0.,24.0,0.,24.0
1980-11-16 02:56:56.500 ,0,1,0.,24.0,0.,24.0
1980-11-16 02:57:20.500 ,0,0,0.,24.0,0.,24.0
1980-11-16 02:57:44.500 ,1,1,0.,24.0,0.,24.0
1980-11-16 02:58:08.500 ,1,0,0.,24.0,0.,24.0
1980-11-16 02:58:32.500 ,2,1,0.,24.0,0.,24.0
1980-11-16 02:58:56.500 ,2,0,0.,24.0,0.,24.0
1980-11-16 02:59:20.500 ,3,1,0.,24.0,0.,24.0
1980-11-16 02:59:44.500 ,3,0,0.,24.0,0.,24.0
1980-11-16 03:00:08.500 ,4,1,0.,24.0,0.,24.0
